Temperature
21 21 20 20 19 19 20 22 23 24 24 25 25 26 25 25 24 22 21 22 22 22 21 21 21 21 21 20 20 20 20 20 20 19 19 19 19 19 19 19 19 19 19 19 19 19 19 19 19
22 21 20 19 19 20 21 22 23 25 25 24 25 25 25 23 22 21 21 22 22 22 21 21 21 21 21 20 20 20 20 19 19 19 19 19 19 19 19 19 19 19 19 19 19 19 19 19 19
22 21 20 19 20 21 22 24 24 25 25 25 25 25 24 23 21 21 22 22 22 22 21 21 21 21 21 20 20 20 20 19 19 19 19 19 19 19 19 19 19 19 19 19 19 19 19 19 19
22 21 20 19 21 22 24 25 25 25 25 25 24 24 24 23 22 22 22 22 22 22 21 21 21 21 21 20 20 20 20 20 19 19 19 19 19 19 19 19 19 19 19 19 19 19 19 19 19
21 21 19 20 21 24 25 26 25 24 24 24 23 22 22 22 23 22 22 22 22 22 21 21 21 21 21 20 20 20 20 20 19 19 19 19 19 19 19 19 19 19 19 19 19 19 19 19 19
21 20 20 20 23 25 25 25 24 24 23 23 22 22 21 22 22 22 22 22 22 22 21 21 21 21 21 20 20 20 20 20 20 19 19 19 19 19 19 19 19 19 19 19 19 19 19 19 19
22 20 21 23 24 25 26 25 24 24 23 22 22 21 21 21 21 22 22 22 22 22 21 21 21 21 21 20 20 20 20 20 20 20 19 19 19 19 19 19 19 19 19 19 19 19 19 19 19
24 21 22 22 24 25 26 25 24 23 22 22 22 21 21 21 21 21 22 22 22 21 21 21 21 21 20 20 20 20 20 20 20 19 19 19 19 19 19 19 19 19 19 19 19 19 19 19 19
24 21 21 23 25 25 26 25 24 23 22 21 22 22 22 21 21 21 21 21 21 21 21 21 21 20 20 20 20 20 20 20 19 19 19 19 19 18 18 18 18 18 18 18 19 19 19 19 19
24 21 23 25 26 25 25 24 23 22 21 20 21 22 22 21 20 21 20 20 20 20 21 21 21 20 20 20 20 20 20 19 19 19 19 19 18 18 18 18 18 18 18 18 18 18 18 18 18
24 23 25 26 26 26 24 23 22 21 19 19 20 21 21 21 20 20 20 20 20 20 20 20 20 20 20 20 19 19 19 19 19 19 19 18 18 18 18 18 18 18 18 18 18 18 18 18 18
25 26 27 26 26 25 24 23 21 20 20 20 20 21 21 20 20 20 20 20 20 20 20 20 20 20 20 19 19 19 19 19 19 18 18 18 18 18 18 18 18 18 18 18 18 18 18 18 18
26 26 26 26 25 24 23 22 20 20 20 20 20 20 20 20 20 20 21 20 20 20 20 20 20 20 19 19 19 19 19 18 18 18 18 18 18 18 18 18 17 17 17 17 17 17 17 17 17
26 26 26 25 25 24 22 21 20 19 20 20 20 20 20 20 20 20 20 20 20 20 20 20 19 19 19 19 19 19 18 18 18 18 18 18 18 18 18 17 17 17 17 17 17 17 17 17 17
27 25 24 24 24 23 23 20 19 19 19 19 19 19 19 19 19 20 20 20 20 20 20 19 19 19 19 19 19 19 18 18 18 18 18 18 17 17 17 17 17 17 17 17 17 17 17 17 17
25 23 23 23 23 23 22 19 19 19 19 18 19 18 19 19 19 19 20 20 20 20 20 19 19 19 19 19 19 18 18 18 18 18 18 17 17 17 17 17 17 17 16 16 16 16 16 16 16
22 22 23 23 23 23 21 19 19 18 18 18 18 18 18 19 19 19 19 20 19 20 19 19 19 19 19 19 18 18 18 18 18 17 17 17 17 17 17 17 16 16 16 16 16 16 16 16 16
22 23 23 23 22 22 20 19 18 18 18 18 18 18 18 19 19 19 19 19 19 19 19 19 19 19 18 18 18 18 18 17 17 17 17 17 17 17 16 16 16 16 16 16 16 15 15 15 15
25 24 23 23 23 21 19 19 18 18 18 17 17 18 18 19 19 19 19 19 19 19 19 19 19 18 18 18 18 18 17 17 17 17 17 16 16 16 16 16 16 15 15 15 15 15 15 15 15
25 24 23 23 22 21 19 19 19 18 18 18 17 18 18 19 19 19 19 19 19 19 19 19 19 18 18 18 18 18 17 17 17 16 16 16 16 16 16 15 15 15 15 15 14 14 14 14 14
25 24 23 22 22 21 20 19 19 19 19 19 18 18 19 19 19 19 19 19 19 19 19 19 19 18 18 18 18 17 17 17 16 16 16 16 16 15 15 15 15 15 14 14 14 14 14 14 14
24 25 24 23 20 19 20 19 19 19 18 19 19 19 19 19 19 19 19 19 19 19 19 19 19 18 18 18 17 17 17 16 16 16 16 15 15 15 15 15 14 14 14 14 14 14 13 13 13
24 24 23 21 19 19 19 18 18 19 18 18 19 19 20 20 20 20 20 20 19 19 19 19 19 18 18 17 17 17 16 16 16 15 15 15 15 15 14 14 14 14 14 14 13 13 13 13 13
24 22 20 18 17 18 19 19 18 18 19 19 19 20 20 20 20 20 20 20 20 19 19 19 18 18 17 17 17 16 16 16 15 15 15 15 14 14 14 14 14 13 13 13 13 13 13 13 12
23 20 19 19 18 18 19 19 18 19 20 20 20 20 20 20 20 20 20 20 20 19 19 19 18 18 17 17 16 16 16 15 15 15 14 14 14 14 14 14 13 13 13 13 13 12 12 12 12
23 21 20 20 19 18 19 19 19 21 21 22 21 21 21 21 21 21 21 20 20 20 19 19 18 18 17 17 16 16 16 15 15 15 14 14 14 13 13 13 13 13 13 12 12 12 12 12 12
23 21 20 18 18 18 18 19 20 21 21 21 21 21 21 21 21 21 21 21 20 20 20 19 19 18 17 17 16 16 15 15 15 14 14 14 13 13 13 13 13 13 12 12 12 12 12 12 11
23 21 19 18 18 18 19 18 19 20 20 21 20 21 21 22 22 22 21 21 21 20 20 19 19 18 18 17 16 16 15 15 15 14 14 14 13 13 13 13 13 13 12 12 12 12 11 11 11
23 22 20 18 18 18 18 18 20 20 20 20 21 22 22 22 22 22 22 21 21 20 20 19 19 18 18 17 17 16 16 15 15 14 14 14 13 13 13 13 12 12 12 12 12 11 11 11 11
23 22 20 19 19 18 18 19 22 21 21 21 22 22 23 23 23 22 22 21 21 20 20 19 19 18 18 17 17 16 16 15 15 14 14 14 13 13 13 13 12 12 12 12 11 11 11 11 11
Wind_Speed
11 7 2 0 1 2 2 4 4 6 5 5 3 5 8 5 4 6 7 18 21 19 19 22 23 22 22 21 21 21 20 19 19 18 18 18 17 17 16 16 15 14 14 13 13 12 12 12 12
8 5 2 1 2 1 4 4 6 6 0 3 5 7 8 8 9 10 10 19 21 18 18 20 23 22 22 21 21 20 20 19 18 18 17 17 16 16 15 15 14 13 13 12 12 11 11 11 10
7 5 2 2 1 3 5 4 7 3 4 2 2 5 6 6 8 6 13 21 18 15 18 21 23 22 21 21 20 20 19 19 18 18 17 16 16 15 14 13 13 13 12 12 11 10 10 9 9
4 2 1 1 4 6 7 7 5 1 6 5 3 5 5 4 4 13 20 20 18 13 17 21 23 22 21 20 20 19 19 18 18 17 16 16 15 15 14 13 12 12 11 11 11 10 9 8 7
2 3 1 2 5 6 6 5 2 3 2 5 7 8 6 6 17 22 20 19 17 13 14 20 22 21 21 20 19 19 19 18 17 16 16 15 15 14 13 12 12 11 11 10 10 9 8 7 5
2 2 1 3 5 3 2 3 6 6 6 6 8 7 4 9 15 18 18 16 15 14 12 17 21 21 20 19 19 18 18 17 17 16 15 15 14 13 13 12 11 11 11 10 9 9 8 7 5
3 1 3 5 4 2 1 4 5 6 8 4 6 6 4 9 11 15 15 15 14 13 11 12 16 18 19 19 18 18 17 16 16 15 14 14 13 13 12 12 11 11 11 10 9 9 8 7 6
5 2 4 4 4 4 1 4 6 8 7 5 4 6 7 8 8 13 14 14 13 11 10 9 10 12 14 16 17 17 16 15 15 14 13 13 12 12 12 11 11 10 10 10 10 9 8 8 7
2 1 5 5 3 2 2 5 5 5 8 4 2 5 9 9 9 13 14 12 11 12 10 9 9 10 12 13 15 15 15 14 13 12 12 11 9 9 10 11 12 11 11 10 10 9 9 8 8
5 4 8 5 3 2 3 5 5 6 8 5 4 5 9 9 10 13 14 12 11 12 11 10 10 9 10 11 12 11 11 11 11 9 9 9 8 8 8 10 12 11 10 10 9 9 8 8 7
6 7 7 4 1 3 4 5 4 8 5 4 8 8 7 6 8 11 12 12 11 11 11 10 10 9 8 6 9 7 7 8 8 9 8 7 6 5 6 6 8 9 9 7 7 7 7 6 6
5 5 4 2 0 4 3 4 7 6 5 5 6 8 6 5 7 10 10 10 10 10 9 9 9 8 7 8 6 6 5 5 5 7 8 6 3 3 3 4 5 6 5 5 4 5 6 6 7
3 3 1 3 6 7 8 8 8 6 7 7 7 6 5 4 6 7 8 8 8 9 8 7 8 8 7 6 4 5 4 5 6 6 7 7 4 2 3 3 3 4 4 4 3 3 4 4 4
3 4 3 3 5 5 10 8 7 4 4 7 7 5 5 4 6 9 11 10 9 9 9 8 8 8 7 6 5 4 5 7 7 7 7 7 6 4 3 2 2 2 4 4 3 3 2 2 2
4 5 6 3 4 3 9 8 5 4 5 7 6 5 4 3 5 9 11 11 9 9 9 8 8 8 8 7 5 5 6 7 6 6 8 7 6 5 4 2 1 2 3 2 2 1 1 1 2
5 4 3 4 2 2 8 5 2 4 7 7 6 5 3 3 2 5 9 9 8 8 8 7 8 8 7 6 5 4 5 5 5 6 7 6 6 6 4 2 1 1 1 1 1 1 0 1 2
4 2 3 3 2 3 6 4 3 4 6 7 5 4 3 4 3 3 5 8 8 8 8 7 7 7 6 6 4 4 4 4 4 5 5 5 6 6 5 2 1 2 2 1 0 1 1 1 2
6 3 2 2 1 6 6 4 5 5 6 6 5 5 5 5 5 5 7 8 8 8 8 8 7 6 6 4 4 3 3 2 3 4 5 6 6 7 5 3 2 3 3 2 2 1 0 1 2
5 3 2 1 2 4 5 4 5 6 6 5 4 6 6 7 5 6 7 9 9 8 8 7 7 5 4 3 3 3 2 1 1 2 4 5 6 6 5 3 2 3 2 2 2 1 1 2 1
2 3 1 1 2 4 4 1 3 6 7 8 9 8 8 7 6 7 7 8 8 8 8 8 7 5 4 3 2 2 2 1 2 1 2 2 4 6 5 4 3 3 3 3 3 2 1 2 2
1 3 4 5 2 4 4 3 1 2 4 6 8 8 8 10 10 10 10 8 8 8 8 8 7 6 5 4 3 4 4 4 3 3 2 1 2 3 4 4 3 3 3 2 2 2 2 1 2
1 1 6 7 5 0 2 1 4 4 3 5 7 8 10 10 10 10 10 10 9 9 8 8 7 7 5 5 5 5 4 3 1 1 1 2 2 0 2 3 4 3 2 2 1 2 1 1 1
3 4 5 4 5 3 2 2 5 2 5 8 10 11 11 11 11 11 12 11 10 10 9 8 8 7 6 6 7 6 4 3 1 1 2 3 3 3 2 3 3 2 2 1 1 1 1 1 2
6 6 6 6 5 3 2 2 4 5 8 9 9 11 12 12 11 11 11 10 9 9 9 8 8 7 6 7 7 7 6 4 3 2 2 2 2 3 3 3 3 2 2 1 1 1 1 1 2
4 6 5 6 5 2 3 2 7 8 8 11 12 12 13 13 12 11 12 12 11 11 10 9 9 7 7 7 7 7 6 5 4 3 2 1 1 1 1 2 1 1 1 2 1 1 2 2 3
2 7 6 4 3 3 3 3 7 6 8 11 12 12 13 13 13 13 14 13 13 13 12 11 10 8 8 7 6 6 6 5 3 3 3 2 2 2 1 1 1 1 2 2 1 2 3 3 3
3 3 6 6 2 2 4 5 6 1 7 9 11 12 13 14 14 14 13 13 13 13 12 12 11 9 8 8 7 6 6 5 4 3 2 2 2 2 2 1 1 2 2 2 2 3 4 3 4
5 6 5 5 4 1 4 4 5 6 9 10 12 13 13 13 13 13 12 12 11 11 10 11 11 10 8 8 7 6 6 6 5 4 3 3 3 2 2 2 2 3 3 3 3 3 4 4 4
2 3 4 4 6 6 4 7 9 13 12 13 14 15 15 15 15 14 12 11 11 11 11 10 10 8 8 8 7 7 6 5 5 4 4 3 3 3 3 3 3 4 4 4 3 4 5 5 5
4 6 7 5 4 5 5 8 8 13 14 14 14 14 14 15 14 13 12 11 11 12 11 11 10 9 8 8 7 7 6 5 4 4 4 4 4 4 4 4 4 4 5 4 5 6 6 5 6
Wind_Direction
171 169 170 230 53 50 283 258 259 290 318 348 77 107 111 89 132 140 129 140 138 143 148 146 143 140 138 135 133 132 130 128 127 126 126 125 125 125 124 124 121 119 117 115 113 111 109 108 107
162 171 168 35 81 43 280 256 274 284 315 1 35 78 72 67 81 104 120 138 138 140 143 145 142 140 139 138 137 137 135 134 133 133 132 131 131 130 130 129 127 124 123 120 118 116 114 112 110
177 182 147 99 138 197 250 242 249 307 357 8 44 51 59 86 99 105 133 136 133 136 141 145 142 141 140 140 140 140 140 140 140 140 139 138 137 136 135 133 132 131 129 127 126 123 121 118 114
164 128 37 103 238 242 242 254 239 40 36 37 93 64 52 68 99 127 134 135 132 134 140 144 142 141 141 142 142 143 144 145 145 145 145 144 144 143 143 142 140 139 138 136 134 132 130 128 124
109 116 102 278 254 254 254 242 174 65 67 78 86 87 48 47 112 128 135 136 134 135 140 143 142 142 143 144 144 145 147 148 148 149 150 151 152 152 151 151 150 147 147 146 144 143 143 141 137
94 113 107 266 267 283 269 178 126 101 99 87 85 92 76 121 124 133 135 135 134 136 138 142 143 144 144 145 146 147 148 150 152 154 155 157 158 157 157 159 159 157 156 157 156 156 158 161 163
158 157 236 262 283 283 241 142 135 131 112 103 122 98 117 136 135 135 132 130 130 134 136 138 143 146 147 148 150 151 152 154 156 158 160 162 164 165 166 168 170 168 168 169 171 173 176 179 186
177 105 303 294 298 305 57 98 103 113 111 122 115 125 153 150 132 131 127 127 131 136 135 134 140 144 147 150 152 154 155 157 160 162 165 168 171 174 176 178 181 182 182 183 184 187 192 197 205
186 82 267 260 256 283 62 90 83 82 100 80 96 135 142 133 123 128 123 127 138 142 142 148 149 151 151 152 157 157 159 163 165 169 171 170 175 182 188 192 192 193 194 194 194 197 203 210 219
160 191 242 240 219 171 74 83 105 103 89 82 83 102 120 126 132 139 138 145 152 156 159 163 162 160 163 163 155 159 162 166 169 172 173 173 178 186 193 201 201 200 201 200 204 210 213 214 224
189 211 250 281 229 113 92 66 83 122 103 154 149 140 126 124 136 140 144 151 159 161 162 168 167 165 167 152 154 164 165 167 172 177 179 176 177 186 195 196 204 204 206 209 218 220 221 216 218
222 249 250 251 73 68 89 102 81 85 129 134 134 131 125 132 145 143 142 147 158 157 153 158 157 154 152 143 155 161 160 163 167 175 178 167 164 164 172 181 190 191 194 205 219 213 219 222 225
242 260 297 98 90 95 89 84 103 91 110 121 115 111 118 127 123 122 130 139 155 150 141 137 135 135 127 122 140 140 142 152 157 152 163 161 147 146 148 161 173 185 189 194 208 216 219 221 230
283 316 337 66 82 81 93 89 91 95 96 105 104 108 114 113 135 143 144 147 153 144 135 130 119 120 116 115 117 125 132 137 133 132 143 144 140 139 130 124 139 182 194 198 208 217 215 227 230
327 342 345 19 67 89 94 64 77 116 97 93 99 106 102 106 142 147 148 148 145 140 132 127 121 116 111 110 113 121 125 121 122 132 141 141 138 133 124 126 138 178 186 185 191 213 191 236 242
354 1 333 324 49 54 87 98 125 137 111 108 105 105 95 107 147 153 141 135 133 132 128 126 123 115 112 113 113 118 119 121 130 141 143 146 142 137 131 133 137 174 136 128 139 136 161 274 282
351 288 275 316 33 82 92 135 150 149 124 126 129 131 151 134 158 172 136 136 135 129 127 118 117 115 114 112 108 107 109 118 140 143 142 144 145 145 140 136 120 92 83 54 62 101 144 266 287
257 240 251 263 352 93 100 124 145 153 151 149 160 164 172 160 185 177 152 144 132 130 130 124 112 109 106 95 84 77 78 91 129 143 151 147 144 140 135 122 93 82 68 35 22 2 301 246 270
224 197 204 222 166 99 113 136 156 167 165 156 175 182 184 167 187 175 150 147 138 131 127 121 115 113 107 97 98 102 103 108 112 149 164 161 149 138 128 116 98 86 80 47 12 6 345 320 342
205 164 155 118 134 116 126 157 176 172 177 180 184 181 184 176 172 172 163 153 145 142 135 128 126 129 125 122 131 132 125 111 110 83 98 138 138 138 140 137 128 112 93 56 39 43 28 338 22
90 164 173 164 115 78 100 15 297 209 176 179 178 175 183 176 175 171 166 161 155 153 148 143 141 136 129 118 95 77 63 52 46 46 37 28 108 138 149 155 142 129 114 93 56 76 84 341 333
59 138 138 135 125 102 112 183 269 220 199 186 182 184 185 181 175 170 167 166 165 163 154 149 144 140 137 123 110 110 110 108 124 124 35 4 15 354 169 154 145 138 130 124 111 107 113 123 313
140 107 83 100 106 76 36 104 284 176 196 204 193 189 186 182 180 178 176 172 170 165 159 153 146 144 141 134 129 120 118 134 132 82 47 19 4 13 65 121 129 132 134 138 119 73 78 158 202
126 80 51 48 68 48 274 144 264 218 203 196 189 184 182 183 184 183 178 169 167 163 159 154 150 154 151 140 134 133 134 128 103 76 51 23 15 22 45 91 110 130 141 166 204 228 266 255 243
89 82 27 2 11 274 270 192 246 235 199 185 182 181 181 181 180 180 175 173 172 170 167 161 157 159 157 148 145 146 145 136 133 140 127 103 48 19 11 74 106 146 207 217 209 227 263 260 255
157 133 153 203 239 286 315 265 260 244 191 172 171 173 179 182 184 186 183 178 177 175 171 166 165 163 164 159 160 155 147 143 153 163 163 167 184 203 197 141 166 248 256 253 236 242 258 254 256
138 162 162 136 109 21 308 308 317 147 156 163 170 174 182 187 187 187 184 178 176 175 175 172 167 165 170 168 162 160 158 159 170 179 170 182 201 198 180 197 246 263 263 261 253 250 263 265 258
161 152 98 113 140 201 289 276 236 208 190 182 181 187 193 190 189 186 183 179 176 172 169 166 164 168 172 170 168 164 169 170 172 169 180 198 212 212 223 254 262 271 273 272 259 257 262 263 265
152 145 128 137 154 154 215 258 221 204 198 192 196 195 193 189 188 186 181 174 166 161 161 163 166 167 168 170 168 162 171 171 167 172 192 200 209 214 223 236 246 258 263 263 254 254 260 259 266
194 186 150 155 199 168 178 257 240 198 198 195 198 200 194 187 183 177 169 161 160 161 164 167 170 172 176 174 169 171 174 172 177 193 205 200 205 217 225 231 241 252 254 252 246 254 258 252 258
Height
1527 1527 1528 1530 1531 1535 1535 1525 1514 1510 1508 1504 1500 1499 1499 1503 1509 1518 1515 1518 1522 1525 1530 1533 1536 1538 1540 1541 1543 1544 1545 1546 1548 1549 1550 1551 1551 1552 1553 1554 1555 1556 1557 1558 1558 1559 1559 1560 1560
1527 1528 1530 1530 1534 1543 1535 1519 1512 1508 1508 1505 1503 1501 1501 1506 1508 1511 1514 1519 1523 1526 1530 1534 1537 1539 1540 1542 1543 1545 1546 1547 1548 1549 1550 1551 1552 1553 1554 1555 1556 1557 1558 1558 1559 1560 1560 1561 1562
1527 1528 1530 1531 1535 1538 1528 1513 1509 1507 1504 1503 1504 1503 1506 1510 1512 1513 1516 1521 1525 1528 1531 1534 1537 1539 1541 1542 1544 1545 1546 1548 1549 1550 1551 1552 1553 1554 1555 1555 1556 1557 1558 1559 1560 1560 1561 1562 1563
1527 1530 1531 1534 1534 1523 1515 1507 1506 1506 1506 1505 1505 1508 1509 1514 1514 1516 1520 1523 1526 1529 1532 1535 1538 1540 1541 1543 1544 1545 1547 1548 1549 1550 1551 1552 1553 1554 1555 1556 1557 1558 1558 1559 1560 1561 1562 1563 1564
1527 1528 1533 1537 1529 1516 1507 1504 1505 1506 1508 1507 1506 1510 1513 1515 1516 1518 1521 1524 1527 1530 1533 1536 1538 1540 1542 1544 1545 1546 1547 1548 1549 1550 1551 1552 1553 1554 1555 1556 1557 1558 1559 1560 1561 1562 1562 1563 1564
1527 1527 1537 1538 1526 1513 1508 1505 1506 1508 1508 1508 1508 1511 1516 1518 1518 1520 1522 1526 1528 1531 1534 1536 1539 1541 1543 1544 1546 1547 1548 1549 1550 1551 1552 1552 1554 1555 1555 1556 1557 1558 1559 1560 1561 1562 1563 1564 1565
1526 1528 1532 1527 1521 1514 1508 1506 1507 1507 1508 1508 1508 1512 1519 1521 1522 1523 1525 1527 1530 1532 1534 1537 1539 1542 1543 1545 1546 1547 1548 1549 1550 1551 1552 1553 1553 1554 1555 1556 1557 1558 1559 1560 1561 1562 1563 1564 1565
1522 1525 1527 1524 1519 1514 1507 1506 1507 1505 1507 1508 1508 1510 1515 1519 1523 1525 1526 1528 1531 1533 1535 1537 1540 1543 1544 1545 1547 1548 1549 1549 1550 1551 1552 1553 1553 1554 1555 1556 1557 1558 1559 1559 1560 1561 1562 1563 1564
1521 1527 1531 1522 1515 1511 1506 1506 1508 1509 1509 1510 1509 1509 1513 1517 1521 1525 1527 1530 1532 1534 1535 1538 1540 1543 1544 1545 1546 1548 1549 1550 1550 1551 1552 1553 1553 1554 1555 1556 1557 1557 1558 1559 1560 1560 1562 1563 1564
1517 1527 1520 1509 1506 1506 1505 1505 1508 1511 1511 1511 1511 1511 1513 1517 1520 1524 1527 1529 1531 1533 1535 1538 1540 1542 1544 1545 1546 1547 1548 1549 1550 1551 1552 1552 1553 1553 1554 1555 1556 1557 1557 1558 1558 1559 1560 1561 1562
1512 1514 1507 1505 1503 1503 1504 1506 1508 1509 1513 1511 1510 1512 1514 1517 1519 1522 1526 1528 1530 1533 1535 1537 1539 1541 1543 1545 1546 1547 1548 1549 1549 1550 1551 1552 1552 1552 1553 1554 1554 1555 1556 1556 1557 1558 1559 1560 1561
1508 1505 1503 1503 1501 1502 1503 1506 1509 1509 1513 1513 1513 1514 1514 1517 1518 1521 1524 1528 1531 1533 1534 1536 1539 1540 1542 1544 1545 1546 1547 1548 1549 1549 1550 1551 1551 1551 1552 1552 1553 1553 1554 1555 1555 1556 1557 1558 1558
1504 1503 1502 1502 1500 1502 1503 1506 1509 1512 1511 1513 1514 1516 1516 1518 1519 1522 1524 1527 1530 1532 1534 1536 1538 1540 1541 1542 1544 1545 1546 1547 1548 1548 1549 1550 1550 1550 1550 1551 1551 1552 1552 1553 1553 1554 1555 1555 1556
1502 1501 1500 1501 1500 1502 1504 1509 1510 1516 1514 1513 1514 1515 1516 1518 1520 1523 1524 1527 1530 1531 1533 1535 1537 1539 1541 1541 1543 1545 1545 1546 1547 1547 1548 1549 1549 1549 1549 1550 1550 1550 1551 1551 1551 1551 1552 1553 1554
1500 1502 1501 1501 1501 1503 1505 1513 1516 1516 1515 1514 1515 1516 1517 1519 1521 1522 1524 1526 1528 1532 1534 1535 1536 1537 1540 1541 1543 1544 1545 1546 1546 1547 1547 1548 1548 1548 1549 1549 1549 1549 1549 1549 1549 1549 1550 1550 1551
1502 1507 1512 1504 1502 1503 1509 1523 1518 1516 1514 1514 1516 1518 1519 1519 1520 1521 1524 1526 1527 1531 1533 1535 1537 1538 1540 1541 1542 1544 1544 1545 1546 1546 1547 1547 1547 1547 1547 1548 1548 1548 1547 1547 1547 1547 1547 1548 1548
1512 1518 1514 1507 1502 1503 1509 1519 1517 1517 1516 1516 1516 1519 1520 1520 1521 1521 1525 1526 1529 1531 1533 1535 1537 1538 1539 1540 1542 1543 1544 1544 1545 1545 1546 1546 1546 1546 1547 1547 1546 1546 1546 1545 1545 1545 1545 1545 1545
1518 1515 1513 1511 1505 1505 1512 1517 1517 1517 1516 1516 1517 1519 1520 1521 1522 1523 1526 1527 1530 1533 1534 1535 1536 1538 1539 1541 1542 1543 1543 1544 1544 1544 1545 1545 1545 1545 1546 1546 1545 1545 1544 1544 1543 1543 1543 1543 1542
1502 1507 1510 1508 1503 1508 1513 1516 1517 1517 1516 1516 1518 1519 1520 1521 1523 1525 1527 1529 1531 1532 1534 1535 1537 1538 1540 1541 1541 1542 1543 1543 1543 1543 1544 1544 1544 1544 1544 1544 1543 1543 1542 1542 1541 1541 1540 1540 1540
1498 1505 1508 1507 1504 1510 1516 1516 1514 1515 1515 1515 1517 1518 1519 1522 1524 1526 1527 1529 1531 1532 1534 1535 1536 1539 1539 1540 1541 1541 1542 1542 1543 1543 1543 1543 1543 1543 1543 1542 1542 1541 1540 1540 1539 1538 1538 1538 1538
1499 1503 1505 1508 1507 1509 1514 1519 1515 1513 1513 1514 1516 1516 1519 1521 1524 1526 1527 1529 1531 1532 1533 1534 1536 1538 1539 1540 1540 1540 1541 1541 1542 1542 1542 1542 1542 1542 1541 1540 1540 1539 1538 1538 1537 1537 1536 1536 1536
1504 1495 1496 1502 1514 1523 1519 1532 1519 1513 1512 1512 1514 1515 1517 1520 1523 1525 1527 1528 1530 1531 1533 1534 1536 1537 1538 1539 1539 1539 1540 1540 1540 1540 1540 1540 1540 1540 1539 1538 1538 1537 1537 1536 1536 1535 1534 1534 1534
1497 1495 1499 1504 1515 1524 1523 1530 1524 1513 1515 1512 1512 1513 1515 1518 1521 1523 1525 1527 1529 1531 1533 1534 1535 1536 1537 1538 1538 1538 1538 1538 1538 1538 1538 1538 1538 1537 1537 1536 1536 1535 1535 1534 1533 1533 1532 1531 1531
1492 1499 1506 1514 1522 1534 1527 1530 1527 1515 1510 1508 1508 1510 1513 1516 1519 1522 1524 1527 1528 1530 1532 1533 1534 1535 1536 1537 1537 1536 1536 1536 1536 1536 1536 1536 1535 1535 1534 1534 1534 1533 1532 1531 1531 1530 1529 1529 1528
1493 1512 1531 1534 1540 1538 1523 1525 1521 1503 1500 1501 1504 1507 1510 1514 1517 1520 1523 1525 1527 1529 1530 1531 1533 1534 1535 1535 1535 1534 1534 1534 1534 1534 1534 1533 1533 1532 1532 1532 1531 1530 1530 1529 1528 1527 1526 1525 1525
1496 1506 1530 1541 1542 1537 1524 1525 1511 1495 1494 1497 1500 1504 1508 1512 1514 1517 1520 1522 1524 1526 1528 1530 1531 1532 1533 1533 1533 1533 1532 1532 1532 1532 1531 1531 1530 1530 1530 1529 1528 1528 1527 1526 1525 1524 1523 1522 1521
1496 1504 1506 1525 1533 1539 1530 1517 1503 1493 1495 1496 1499 1502 1505 1508 1511 1514 1517 1520 1522 1524 1526 1528 1529 1531 1531 1531 1531 1531 1531 1530 1530 1530 1529 1529 1528 1528 1527 1526 1525 1524 1523 1522 1521 1520 1520 1519 1518
1487 1495 1511 1524 1538 1543 1533 1526 1517 1502 1498 1496 1497 1499 1501 1504 1508 1511 1514 1516 1519 1521 1524 1526 1527 1528 1529 1529 1529 1529 1528 1528 1528 1527 1527 1526 1526 1525 1524 1523 1522 1521 1520 1519 1518 1517 1516 1515 1514
1490 1495 1504 1517 1522 1536 1543 1527 1493 1492 1491 1492 1493 1494 1497 1500 1504 1507 1510 1513 1516 1519 1521 1523 1525 1526 1526 1527 1527 1527 1526 1526 1526 1525 1524 1524 1523 1522 1521 1520 1519 1518 1517 1516 1515 1514 1513 1512 1511
1483 1488 1498 1514 1518 1520 1527 1517 1478 1480 1482 1485 1487 1490 1493 1496 1500 1503 1507 1511 1514 1516 1519 1520 1522 1523 1524 1524 1525 1524 1524 1524 1523 1523 1522 1521 1520 1519 1518 1517 1516 1515 1514 1513 1511 1510 1509 1508 1507